SPSEC EPKK-EPKK

Flight info

Callsign SPSEC
Flight time 0h 11m
Altitude 2000
Route TRAFFIC CIRCUITS
Aircraft PA24/L-SBDGRY/S

Departure

Time 2026-05-05 17:57
Airport Kraków John Paul II International Airport (EPKK)

Arrival

Time 2026-05-05 18:09
Airport Kraków John Paul II International Airport (EPKK)
Time Latitude Longitude Altitude Speed Heading
2026-05-05 17:46 50.07688 19.80077 794 ft 0 kts 348°
2026-05-05 17:55 50.07720 19.80066 794 ft 10 kts 353°
2026-05-05 17:55 50.07751 19.80151 794 ft 12 kts 78°
2026-05-05 17:55 50.07779 19.80327 795 ft 12 kts 47°
2026-05-05 17:56 50.07873 19.80328 795 ft 15 kts 351°
2026-05-05 17:56 50.08013 19.80270 794 ft 23 kts 324°
2026-05-05 17:56 50.08010 19.80181 795 ft 3 kts 258°
2026-05-05 17:56 50.07988 19.80013 795 ft 52 kts 253°
2026-05-05 17:57 50.07879 19.79238 952 ft 75 kts 251°
2026-05-05 17:57 50.07768 19.78478 1216 ft 73 kts 250°
2026-05-05 17:57 50.07643 19.77624 1479 ft 88 kts 251°
2026-05-05 17:57 50.07524 19.76724 1761 ft 78 kts 255°
2026-05-05 17:58 50.07308 19.76054 1847 ft 65 kts 208°
2026-05-05 17:58 50.06848 19.76114 1829 ft 75 kts 168°
2026-05-05 17:58 50.06323 19.76439 1786 ft 83 kts 168°
2026-05-05 17:58 50.05819 19.76871 1762 ft 86 kts 140°
2026-05-05 17:59 50.05734 19.77845 1708 ft 102 kts 83°
2026-05-05 17:59 50.05935 19.78896 1692 ft 102 kts 78°
2026-05-05 17:59 50.06143 19.79942 1698 ft 103 kts 78°
2026-05-05 17:59 50.06345 19.81003 1669 ft 103 kts 77°
2026-05-05 18:00 50.06549 19.82071 1647 ft 102 kts 76°
2026-05-05 18:00 50.06750 19.83131 1639 ft 101 kts 78°
2026-05-05 18:00 50.06959 19.84208 1648 ft 108 kts 81°
2026-05-05 18:00 50.07152 19.85333 1654 ft 110 kts 78°
2026-05-05 18:01 50.07376 19.86472 1641 ft 105 kts 81°
2026-05-05 18:01 50.07556 19.87561 1662 ft 103 kts 83°
2026-05-05 18:01 50.07742 19.88675 1681 ft 107 kts 80°
2026-05-05 18:01 50.07958 19.89779 1686 ft 105 kts 66°
2026-05-05 18:02 50.08592 19.90268 1600 ft 112 kts
2026-05-05 18:02 50.09302 19.89926 1632 ft 108 kts 307°
2026-05-05 18:02 50.09348 19.88907 1596 ft 94 kts 235°
2026-05-05 18:02 50.09107 19.87972 1513 ft 95 kts 252°
2026-05-05 18:03 50.08984 19.86961 1491 ft 91 kts 256°
2026-05-05 18:03 50.08863 19.86076 1447 ft 76 kts 244°
2026-05-05 18:03 50.08728 19.85283 1349 ft 75 kts 256°
2026-05-05 18:03 50.08643 19.84459 1330 ft 78 kts 250°
2026-05-05 18:04 50.08527 19.83617 1314 ft 85 kts 248°
2026-05-05 18:04 50.08359 19.82693 1202 ft 90 kts 250°
2026-05-05 18:04 50.08229 19.81758 1115 ft 88 kts 252°
2026-05-05 18:04 50.08113 19.80858 963 ft 82 kts 254°
2026-05-05 18:05 50.07995 19.80022 831 ft 74 kts 251°
2026-05-05 18:05 50.07896 19.79362 794 ft 50 kts 256°
2026-05-05 18:05 50.07780 19.78633 943 ft 75 kts 251°
2026-05-05 18:05 50.07673 19.77871 1217 ft 72 kts 252°
2026-05-05 18:06 50.07553 19.77078 1485 ft 78 kts 237°
2026-05-05 18:06 50.07441 19.76877 1558 ft 74 kts 213°
2026-05-05 18:06 50.06512 19.77212 1490 ft 92 kts 165°
2026-05-05 18:06 50.05977 19.77709 1475 ft 92 kts 117°
2026-05-05 18:07 50.06038 19.78735 1467 ft 98 kts 79°
2026-05-05 18:07 50.06166 19.79437 1446 ft 101 kts 77°
2026-05-05 18:07 50.06365 19.80503 1447 ft 104 kts 79°
2026-05-05 18:07 50.06774 19.81192 1381 ft 91 kts 359°
2026-05-05 18:08 50.07394 19.81079 1194 ft 80 kts 346°
2026-05-05 18:08 50.07927 19.80975 1091 ft 75 kts 338°
2026-05-05 18:08 50.08026 19.80374 964 ft 69 kts 251°
2026-05-05 18:08 50.07943 19.79700 794 ft 57 kts 253°
2026-05-05 18:09 50.07868 19.79175 795 ft 39 kts 259°
2026-05-05 18:09 50.07775 19.78585 928 ft 64 kts 248°
2026-05-05 18:09 50.07665 19.77898 1173 ft 70 kts 258°
2026-05-05 18:09 50.07567 19.77162 1572 ft 65 kts 254°
2026-05-05 18:10 50.07471 19.76466 1855 ft 70 kts 231°
2026-05-05 18:10 50.06955 19.76470 2011 ft 95 kts 167°
2026-05-05 18:10 50.06267 19.76804 2179 ft 105 kts 165°
2026-05-05 18:10 50.05614 19.77154 2142 ft 87 kts 167°
2026-05-05 18:11 50.05081 19.77610 2004 ft 89 kts 129°
2026-05-05 18:11 50.05140 19.78634 1901 ft 107 kts 77°
2026-05-05 18:11 50.05344 19.79747 1867 ft 106 kts 78°
2026-05-05 18:11 50.05549 19.80866 1817 ft 108 kts 79°
2026-05-05 18:12 50.05768 19.81982 1790 ft 108 kts 80°
2026-05-05 18:12 50.05986 19.83074 1733 ft 108 kts 78°
2026-05-05 18:12 50.06232 19.84209 1677 ft 115 kts 77°
2026-05-05 18:12 50.06784 19.84965 1620 ft 113 kts 360°
2026-05-05 18:13 50.07571 19.84814 1597 ft 111 kts 347°
2026-05-05 18:13 50.08333 19.84676 1522 ft 109 kts 344°
2026-05-05 18:13 50.08628 19.83895 1500 ft 92 kts 247°
2026-05-05 18:13 50.08415 19.83000 1348 ft 88 kts 249°
2026-05-05 18:14 50.08279 19.82061 1195 ft 90 kts 256°
2026-05-05 18:14 50.08136 19.81089 1055 ft 92 kts 258°
2026-05-05 18:14 50.08005 19.80160 926 ft 78 kts 255°
2026-05-05 18:14 50.07907 19.79430 800 ft 62 kts 257°
2026-05-05 18:15 50.07815 19.78794 828 ft 72 kts 254°
2026-05-05 18:15 50.07710 19.78055 1128 ft 66 kts 254°
2026-05-05 18:15 50.07591 19.77277 1412 ft 81 kts 256°
2026-05-05 18:15 50.07549 19.76375 1707 ft 88 kts 256°
2026-05-05 18:16 50.07454 19.75469 2059 ft 85 kts 256°
2026-05-05 18:16 50.07552 19.74496 2122 ft 97 kts 286°
2026-05-05 18:16 50.07937 19.73613 2101 ft 102 kts 294°
2026-05-05 18:16 50.08380 19.72795 2102 ft 99 kts 310°
2026-05-05 18:17 50.08992 19.72237 2042 ft 106 kts 327°
2026-05-05 18:17 50.09645 19.71713 2043 ft 105 kts 325°
2026-05-05 18:17 50.10276 19.71175 2099 ft 102 kts 321°
2026-05-05 18:17 50.10871 19.70592 2145 ft 101 kts 315°
2026-05-05 18:18 50.11452 19.69985 2174 ft 100 kts 325°
2026-05-05 18:18 50.12064 19.69436 2202 ft 102 kts 318°
2026-05-05 18:18 50.12642 19.68833 2222 ft 100 kts 314°
2026-05-05 18:18 50.13179 19.68189 2225 ft 100 kts 315°
2026-05-05 18:19 50.13642 19.67367 2213 ft 103 kts 288°
2026-05-05 18:19 50.13933 19.66377 2217 ft 100 kts 283°
2026-05-05 18:19 50.14355 19.65552 2220 ft 100 kts 314°
2026-05-05 18:19 50.14942 19.64937 2292 ft 97 kts 306°
2026-05-05 18:20 50.15201 19.64045 2308 ft 91 kts 258°
2026-05-05 18:20 50.14946 19.63329 2395 ft 72 kts 199°
2026-05-05 18:20 50.14477 19.63649 2340 ft 89 kts 130°
2026-05-05 18:20 50.14715 19.64473 2202 ft 106 kts
2026-05-05 18:21 50.15436 19.64153 2148 ft 107 kts 336°
2026-05-05 18:21 50.16098 19.63612 2168 ft 109 kts 314°
2026-05-05 18:21 50.16680 19.62923 2247 ft 103 kts 312°
2026-05-05 18:21 50.17277 19.62305 2273 ft 103 kts 320°
2026-05-05 18:22 50.17896 19.61693 2250 ft 109 kts 315°
2026-05-05 18:22 50.18460 19.60986 2307 ft 102 kts 308°
2026-05-05 18:22 50.18987 19.60271 2263 ft 99 kts 318°
2026-05-05 18:22 50.19665 19.59981 2193 ft 106 kts 349°
2026-05-05 18:23 50.20400 19.59750 2168 ft 109 kts 341°
2026-05-05 18:23 50.21142 19.59536 2156 ft 111 kts 343°
2026-05-05 18:23 50.21904 19.59363 2164 ft 110 kts 345°
2026-05-05 18:23 50.22659 19.59255 2168 ft 109 kts 345°
2026-05-05 18:24 50.23408 19.59184 2165 ft 109 kts 344°
2026-05-05 18:24 50.24139 19.59249 2166 ft 105 kts 13°
2026-05-05 18:24 50.24738 19.59908 2163 ft 107 kts 48°
2026-05-05 18:24 50.25214 19.60815 2156 ft 110 kts 53°
2026-05-05 18:25 50.25651 19.61771 2172 ft 105 kts 73°
2026-05-05 18:25 50.25749 19.62481 2178 ft 99 kts 97°
2026-05-05 18:25 50.25688 19.63882 2174 ft 96 kts 107°
2026-05-05 18:25 50.25632 19.64917 2173 ft 96 kts 109°
2026-05-05 18:26 50.25556 19.65964 2177 ft 98 kts 108°
2026-05-05 18:26 50.25451 19.67032 2179 ft 101 kts 108°
2026-05-05 18:26 50.25352 19.68141 2172 ft 101 kts 108°
2026-05-05 18:26 50.25290 19.69234 2177 ft 101 kts 108°
2026-05-05 18:27 50.25160 19.70304 2185 ft 99 kts 117°
2026-05-05 18:27 50.24956 19.71348 2183 ft 102 kts 119°
2026-05-05 18:27 50.24721 19.72394 2176 ft 102 kts 124°
2026-05-05 18:27 50.24413 19.73371 2172 ft 100 kts 127°
2026-05-05 18:28 50.23804 19.75304 2161 ft 99 kts 127°
2026-05-05 18:28 50.23484 19.76260 2162 ft 98 kts 130°
2026-05-05 18:28 50.23154 19.77161 2165 ft 97 kts 130°
2026-05-05 18:29 50.22779 19.78021 2186 ft 94 kts 137°
2026-05-05 18:29 50.22391 19.78821 2155 ft 91 kts 141°
2026-05-05 18:29 50.21984 19.79575 2146 ft 90 kts 140°
2026-05-05 18:29 50.21437 19.80394 1806 ft 117 kts 140°
2026-05-05 18:30 50.20765 19.81132 1510 ft 119 kts 149°
2026-05-05 18:30 50.20338 19.82019 1776 ft 82 kts 123°
2026-05-05 18:30 50.20105 19.82837 1867 ft 86 kts 120°
2026-05-05 18:30 50.19871 19.83728 1872 ft 90 kts 121°
2026-05-05 18:31 50.19563 19.84565 1924 ft 90 kts 132°
2026-05-05 18:31 50.19666 19.85332 2218 ft 98 kts 25°
2026-05-05 18:31 50.20175 19.84963 2566 ft 89 kts 249°
2026-05-05 18:31 50.19823 19.85154 2723 ft 112 kts 76°
2026-05-05 18:32 50.20619 19.85281 2786 ft 129 kts 337°
2026-05-05 18:32 50.21443 19.84867 2653 ft 117 kts 322°
2026-05-05 18:32 50.22047 19.84122 2442 ft 105 kts 295°
2026-05-05 18:32 50.22436 19.83224 2274 ft 93 kts 291°
2026-05-05 18:33 50.22729 19.82364 2298 ft 87 kts 273°
2026-05-05 18:33 50.22857 19.81469 2285 ft 82 kts 270°
2026-05-05 18:33 50.22934 19.80598 2264 ft 80 kts 271°
2026-05-05 18:33 50.23028 19.79744 2273 ft 79 kts 271°
2026-05-05 18:34 50.23132 19.78918 2285 ft 77 kts 271°
2026-05-05 18:34 50.23248 19.78104 2283 ft 76 kts 271°
2026-05-05 18:34 50.23357 19.77335 2276 ft 70 kts 271°
2026-05-05 18:34 50.23454 19.76602 2282 ft 70 kts 271°
2026-05-05 18:35 50.23556 19.75834 2286 ft 74 kts 271°
2026-05-05 18:35 50.23661 19.75035 2287 ft 75 kts 273°
2026-05-05 18:35 50.23854 19.74249 2290 ft 80 kts 281°
2026-05-05 18:35 50.24112 19.73454 2302 ft 83 kts 283°
2026-05-05 18:36 50.24393 19.72645 2302 ft 85 kts 283°
2026-05-05 18:36 50.24685 19.71819 2296 ft 88 kts 283°
2026-05-05 18:36 50.24980 19.70953 2296 ft 91 kts 283°
2026-05-05 18:36 50.25257 19.70064 2290 ft 91 kts 283°
2026-05-05 18:37 50.25515 19.69154 2295 ft 91 kts 283°
2026-05-05 18:37 50.25767 19.68263 2296 ft 88 kts 284°
2026-05-05 18:37 50.26023 19.67363 2289 ft 94 kts 283°
2026-05-05 18:37 50.26263 19.66436 2300 ft 90 kts 275°
2026-05-05 18:38 50.26416 19.65514 2267 ft 90 kts 271°
2026-05-05 18:38 50.26532 19.64538 2260 ft 92 kts 269°
2026-05-05 18:38 50.26629 19.63542 2267 ft 91 kts 268°
2026-05-05 18:38 50.26735 19.62547 2229 ft 94 kts 268°
2026-05-05 18:39 50.26849 19.61551 2208 ft 93 kts 266°
2026-05-05 18:39 50.26939 19.60541 2191 ft 94 kts 264°
2026-05-05 18:39 50.26966 19.59537 2171 ft 92 kts 250°
2026-05-05 18:39 50.26711 19.58701 2113 ft 83 kts 226°
2026-05-05 18:40 50.26425 19.57982 2115 ft 76 kts 232°
2026-05-05 18:40 50.26309 19.57194 2088 ft 82 kts 263°
2026-05-05 18:40 50.26398 19.56326 2092 ft 86 kts 269°
2026-05-05 18:40 50.26522 19.55395 2090 ft 89 kts 268°
2026-05-05 18:41 50.26622 19.54403 2066 ft 92 kts 266°
2026-05-05 18:41 50.26667 19.53387 2065 ft 94 kts 256°
2026-05-05 18:41 50.26497 19.52422 2065 ft 91 kts 232°
2026-05-05 18:41 50.26310 19.51537 2058 ft 89 kts 254°
2026-05-05 18:42 50.26385 19.50544 1992 ft 98 kts 278°
2026-05-05 18:42 50.26600 19.49588 2012 ft 93 kts 283°
2026-05-05 18:42 50.26889 19.48683 1991 ft 93 kts 302°
2026-05-05 18:42 50.27446 19.48061 1962 ft 98 kts 316°
2026-05-05 18:43 50.27935 19.47371 1994 ft 95 kts 278°
2026-05-05 18:43 50.27790 19.46481 2014 ft 79 kts 237°
2026-05-05 18:43 50.27340 19.46427 2006 ft 84 kts 137°
2026-05-05 18:43 50.27188 19.47356 2011 ft 93 kts 94°
2026-05-05 18:44 50.27666 19.47916 1893 ft 99 kts 348°
2026-05-05 18:44 50.28018 19.47102 1833 ft 92 kts 272°
2026-05-05 18:44 50.27809 19.46375 1942 ft 74 kts 177°
2026-05-05 18:44 50.27489 19.47088 1896 ft 96 kts 117°
2026-05-05 18:45 50.27194 19.48017 1909 ft 93 kts 130°
2026-05-05 18:45 50.26810 19.48813 1926 ft 89 kts 141°
2026-05-05 18:45 50.26378 19.49514 1921 ft 90 kts 142°
2026-05-05 18:45 50.25936 19.50213 1920 ft 91 kts 143°
2026-05-05 18:46 50.25499 19.50919 1918 ft 90 kts 141°
2026-05-05 18:46 50.25077 19.51609 1926 ft 87 kts 141°
2026-05-05 18:46 50.24644 19.52329 1994 ft 96 kts 139°
2026-05-05 18:46 50.24165 19.53135 2072 ft 108 kts 140°
2026-05-05 18:47 50.23656 19.54040 2213 ft 110 kts 137°
2026-05-05 18:47 50.23112 19.54871 2227 ft 119 kts 144°
2026-05-05 18:47 50.22577 19.55741 2290 ft 104 kts 143°
2026-05-05 18:47 50.22131 19.56593 2287 ft 102 kts 137°
2026-05-05 18:48 50.21693 19.57429 2310 ft 96 kts 151°
2026-05-05 18:48 50.21268 19.58197 2299 ft 97 kts 142°
2026-05-05 18:48 50.20794 19.58950 2262 ft 96 kts 150°
2026-05-05 18:48 50.20256 19.59614 2204 ft 98 kts 152°
2026-05-05 18:49 50.19858 19.60414 2135 ft 97 kts 96°
2026-05-05 18:49 50.20141 19.60968 2047 ft 113 kts 20°
2026-05-05 18:49 50.20921 19.61090 2053 ft 115 kts 18°
2026-05-05 18:49 50.21909 19.60845 2113 ft 110 kts 315°
2026-05-05 18:50 50.22082 19.59901 2151 ft 94 kts 217°
2026-05-05 18:50 50.21692 19.59837 2148 ft 93 kts 155°
2026-05-05 18:50 50.21171 19.60345 2155 ft 93 kts 130°
2026-05-05 18:50 50.20786 19.61219 2124 ft 100 kts 141°
2026-05-05 18:51 50.20346 19.62044 2109 ft 99 kts 144°
2026-05-05 18:51 50.19798 19.62632 2145 ft 93 kts 165°
2026-05-05 18:51 50.19220 19.62961 2200 ft 85 kts 173°
2026-05-05 18:51 50.18633 19.63196 2202 ft 86 kts 173°
2026-05-05 18:52 50.18027 19.63380 2165 ft 90 kts 178°
2026-05-05 18:52 50.17422 19.63662 2120 ft 94 kts 145°
2026-05-05 18:52 50.17383 19.64618 2055 ft 104 kts 54°
2026-05-05 18:52 50.18021 19.64859 2018 ft 105 kts 317°
2026-05-05 18:53 50.17876 19.64081 2025 ft 82 kts 206°
2026-05-05 18:53 50.17309 19.63788 1952 ft 87 kts 188°
2026-05-05 18:53 50.16826 19.64191 1963 ft 94 kts 113°
2026-05-05 18:53 50.16955 19.65179 1954 ft 101 kts 57°
2026-05-05 18:54 50.17534 19.65359 1981 ft 94 kts 317°
2026-05-05 18:54 50.17617 19.64529 1977 ft 83 kts 222°
2026-05-05 18:54 50.17086 19.64126 1900 ft 91 kts 193°
2026-05-05 18:54 50.16449 19.63951 1895 ft 91 kts 187°
2026-05-05 18:55 50.15822 19.63887 1895 ft 92 kts 182°
2026-05-05 18:55 50.15171 19.63802 1814 ft 95 kts 181°
2026-05-05 18:55 50.14511 19.63984 1780 ft 99 kts 165°
2026-05-05 18:55 50.13948 19.64533 1741 ft 99 kts 139°
2026-05-05 18:56 50.13493 19.65377 1738 ft 102 kts 129°
2026-05-05 18:56 50.13206 19.66343 1743 ft 98 kts 109°
2026-05-05 18:56 50.13028 19.67380 1746 ft 98 kts 110°
2026-05-05 18:56 50.12847 19.68390 1734 ft 100 kts 114°
2026-05-05 18:57 50.12612 19.69394 1743 ft 100 kts 109°
2026-05-05 18:57 50.12457 19.70442 1765 ft 99 kts 108°
2026-05-05 18:57 50.12309 19.71457 1790 ft 92 kts 107°
2026-05-05 18:57 50.12129 19.72423 1794 ft 93 kts 115°
2026-05-05 18:58 50.11887 19.73375 1802 ft 96 kts 117°
2026-05-05 18:58 50.11648 19.74359 1785 ft 97 kts 112°
2026-05-05 18:58 50.11443 19.75338 1770 ft 95 kts 112°
2026-05-05 18:58 50.11232 19.76343 1717 ft 98 kts 118°
2026-05-05 18:59 50.11197 19.77424 1674 ft 102 kts 96°
2026-05-05 18:59 50.11269 19.78432 1730 ft 94 kts 42°
2026-05-05 18:59 50.11661 19.77990 1685 ft 85 kts 249°
2026-05-05 18:59 50.11194 19.77710 1694 ft 86 kts 172°
2026-05-05 19:00 50.10778 19.78300 1685 ft 92 kts 108°
2026-05-05 19:00 50.10886 19.79188 1714 ft 94 kts 18°
2026-05-05 19:00 50.11150 19.78557 1657 ft 89 kts 251°
2026-05-05 19:00 50.11029 19.77676 1726 ft 79 kts 204°
2026-05-05 19:01 50.10744 19.78163 1680 ft 92 kts 92°
2026-05-05 19:01 50.10776 19.79184 1723 ft 96 kts 68°
2026-05-05 19:01 50.11372 19.79418 1691 ft 99 kts 320°
2026-05-05 19:01 50.11531 19.78542 1738 ft 84 kts 257°
2026-05-05 19:02 50.11316 19.77724 1765 ft 82 kts 200°
2026-05-05 19:02 50.10797 19.77950 1727 ft 88 kts 111°
2026-05-05 19:02 50.10838 19.78966 1765 ft 98 kts 86°
2026-05-05 19:02 50.11210 19.79704 1768 ft 96 kts 359°
2026-05-05 19:03 50.11560 19.79034 1775 ft 79 kts 263°
2026-05-05 19:03 50.11483 19.78245 1873 ft 64 kts 240°
2026-05-05 19:03 50.11102 19.77902 1890 ft 71 kts 181°
2026-05-05 19:03 50.10813 19.78511 1825 ft 96 kts 95°
2026-05-05 19:04 50.11158 19.79317 1842 ft 98 kts 10°
2026-05-05 19:04 50.11576 19.78704 1801 ft 91 kts 268°
2026-05-05 19:04 50.11353 19.77956 1856 ft 83 kts 203°
2026-05-05 19:04 50.10820 19.78136 1852 ft 91 kts 127°
2026-05-05 19:05 50.10742 19.79169 1860 ft 104 kts 94°
2026-05-05 19:05 50.10863 19.80257 1868 ft 103 kts 58°
2026-05-05 19:05 50.11473 19.80443 1869 ft 96 kts 330°
2026-05-05 19:05 50.11779 19.79656 1902 ft 85 kts 272°
2026-05-05 19:06 50.11819 19.78796 1964 ft 76 kts 261°
2026-05-05 19:06 50.11622 19.78111 2022 ft 69 kts 203°
2026-05-05 19:06 50.11130 19.77958 2027 ft 72 kts 187°
2026-05-05 19:06 50.10692 19.78336 1988 ft 82 kts 120°
2026-05-05 19:07 50.10702 19.79306 1940 ft 100 kts 66°
2026-05-05 19:07 50.11288 19.79666 1900 ft 102 kts 333°
2026-05-05 19:07 50.11626 19.78855 1932 ft 88 kts 273°
2026-05-05 19:07 50.11464 19.78050 1963 ft 83 kts 203°
2026-05-05 19:08 50.10871 19.78120 1963 ft 87 kts 145°
2026-05-05 19:08 50.10815 19.79134 1910 ft 105 kts 78°
2026-05-05 19:08 50.11020 19.80179 1949 ft 101 kts 72°
2026-05-05 19:08 50.11585 19.80559 1913 ft 99 kts 333°
2026-05-05 19:09 50.11829 19.79718 1951 ft 87 kts 249°
2026-05-05 19:09 50.11492 19.78996 1892 ft 88 kts 191°
2026-05-05 19:09 50.10866 19.79262 1813 ft 99 kts 165°
2026-05-05 19:09 50.10239 19.79629 1720 ft 91 kts 166°
2026-05-05 19:10 50.09837 19.80218 1657 ft 88 kts 102°
2026-05-05 19:10 50.09931 19.81254 1556 ft 103 kts 83°
2026-05-05 19:10 50.10033 19.82361 1490 ft 103 kts 94°
2026-05-05 19:10 50.09524 19.82964 1361 ft 106 kts 176°
2026-05-05 19:11 50.08836 19.83176 1315 ft 94 kts 172°
2026-05-05 19:11 50.08372 19.83013 1187 ft 67 kts 256°
2026-05-05 19:11 50.08290 19.82316 1002 ft 61 kts 254°
2026-05-05 19:11 50.08202 19.81618 962 ft 73 kts 257°
2026-05-05 19:12 50.08102 19.80849 907 ft 72 kts 260°
2026-05-05 19:12 50.07999 19.80100 837 ft 68 kts 258°
2026-05-05 19:12 50.07903 19.79421 800 ft 57 kts 259°
2026-05-05 19:12 50.07832 19.78903 797 ft 54 kts 254°
2026-05-05 19:13 50.07721 19.78132 995 ft 73 kts 256°
2026-05-05 19:13 50.07604 19.77383 1305 ft 74 kts 258°
2026-05-05 19:13 50.07489 19.76535 1575 ft 86 kts 255°
2026-05-05 19:13 50.07284 19.75581 1831 ft 98 kts 214°
2026-05-05 19:14 50.06581 19.75722 1924 ft 119 kts 166°
2026-05-05 19:14 50.05834 19.76207 2007 ft 107 kts 130°
2026-05-05 19:14 50.05889 19.77343 2022 ft 113 kts 81°
2026-05-05 19:14 50.06151 19.78511 1977 ft 116 kts 77°
2026-05-05 19:15 50.06426 19.79693 1946 ft 114 kts 76°
2026-05-05 19:15 50.06681 19.80845 1914 ft 112 kts 79°
2026-05-05 19:15 50.06973 19.81992 1783 ft 117 kts 46°
2026-05-05 19:15 50.07757 19.81980 1547 ft 113 kts 342°
2026-05-05 19:16 50.08176 19.81376 1366 ft 78 kts 258°
2026-05-05 19:16 50.08062 19.80536 1034 ft 77 kts 258°
2026-05-05 19:16 50.07956 19.79775 832 ft 65 kts 258°
2026-05-05 19:16 50.07877 19.79193 795 ft 40 kts 257°
2026-05-05 19:17 50.07797 19.78558 896 ft 70 kts 277°
2026-05-05 19:17 50.07695 19.77828 1147 ft 72 kts 233°
2026-05-05 19:17 50.07545 19.77047 1471 ft 80 kts 264°
2026-05-05 19:17 50.07898 19.76392 1742 ft 103 kts 341°
2026-05-05 19:18 50.08603 19.76095 1854 ft 103 kts 338°
2026-05-05 19:18 50.09303 19.75919 1844 ft 107 kts 23°
2026-05-05 19:18 50.09639 19.76910 1780 ft 106 kts 80°
2026-05-05 19:18 50.09805 19.77988 1801 ft 102 kts 84°
2026-05-05 19:19 50.09959 19.79107 1795 ft 108 kts 83°
2026-05-05 19:19 50.10108 19.80256 1766 ft 109 kts 84°
2026-05-05 19:19 50.10233 19.81416 1768 ft 107 kts 85°
2026-05-05 19:19 50.09903 19.82275 1679 ft 104 kts 166°
2026-05-05 19:20 50.09272 19.82570 1621 ft 83 kts 170°
2026-05-05 19:20 50.08770 19.82705 1439 ft 66 kts 172°
2026-05-05 19:20 50.08325 19.82511 1329 ft 79 kts 250°
2026-05-05 19:20 50.08202 19.81621 1204 ft 82 kts 255°
2026-05-05 19:21 50.08092 19.80826 1045 ft 70 kts 259°
2026-05-05 19:21 50.08002 19.80110 864 ft 65 kts 258°
2026-05-05 19:21 50.07901 19.79426 799 ft 59 kts 258°
2026-05-05 19:21 50.07801 19.78826 929 ft 64 kts 255°
2026-05-05 19:22 50.07710 19.78183 1208 ft 65 kts 258°
2026-05-05 19:22 50.07609 19.77430 1486 ft 81 kts 258°
2026-05-05 19:22 50.07835 19.76689 1781 ft 98 kts 341°
2026-05-05 19:22 50.08524 19.76494 1897 ft 103 kts 348°
2026-05-05 19:23 50.09241 19.76401 1891 ft 107 kts 17°
2026-05-05 19:23 50.09602 19.77358 1801 ft 105 kts 77°
2026-05-05 19:23 50.09807 19.78440 1801 ft 105 kts 81°
2026-05-05 19:23 50.09984 19.79555 1789 ft 107 kts 81°
2026-05-05 19:24 50.10185 19.80664 1789 ft 106 kts 81°
2026-05-05 19:24 50.10371 19.81774 1814 ft 105 kts 83°
2026-05-05 19:24 50.10526 19.82913 1771 ft 110 kts 84°
2026-05-05 19:24 50.10524 19.84039 1784 ft 104 kts 131°
2026-05-05 19:25 50.09906 19.84464 1767 ft 93 kts 169°
2026-05-05 19:25 50.09242 19.84687 1700 ft 98 kts 171°
2026-05-05 19:25 50.08638 19.84732 1777 ft 80 kts 215°
2026-05-05 19:25 50.08515 19.83838 1607 ft 90 kts 260°
2026-05-05 19:26 50.08376 19.82832 1330 ft 98 kts 255°
2026-05-05 19:26 50.08243 19.81829 1174 ft 84 kts 258°
2026-05-05 19:26 50.08120 19.80986 966 ft 71 kts 261°
2026-05-05 19:26 50.08028 19.80319 851 ft 60 kts 258°
2026-05-05 19:27 50.07946 19.79719 799 ft 47 kts 255°
2026-05-05 19:27 50.07883 19.79303 802 ft 51 kts 240°
2026-05-05 19:27 50.07769 19.78683 1008 ft 63 kts 255°
2026-05-05 19:27 50.07515 19.78225 1224 ft 80 kts 174°
2026-05-05 19:28 50.06845 19.78517 1383 ft 107 kts 151°
2026-05-05 19:28 50.06756 19.79610 1486 ft 106 kts 84°
2026-05-05 19:28 50.06891 19.80741 1508 ft 106 kts 81°
2026-05-05 19:28 50.07037 19.81839 1527 ft 103 kts 82°
2026-05-05 19:29 50.07059 19.82831 1553 ft 87 kts 132°
2026-05-05 19:29 50.06500 19.83036 1557 ft 92 kts 208°
2026-05-05 19:29 50.06203 19.82155 1528 ft 97 kts 252°
2026-05-05 19:29 50.05987 19.81165 1539 ft 96 kts 242°
2026-05-05 19:30 50.05528 19.80422 1517 ft 97 kts 227°
2026-05-05 19:30 50.05228 19.79472 1521 ft 98 kts 250°
2026-05-05 19:30 50.05175 19.78509 1576 ft 96 kts 314°
2026-05-05 19:30 50.05641 19.78864 1524 ft 96 kts 94°
2026-05-05 19:31 50.05415 19.79841 1499 ft 98 kts 140°
2026-05-05 19:31 50.04822 19.79850 1519 ft 94 kts 230°
2026-05-05 19:31 50.04815 19.78868 1520 ft 98 kts 294°
2026-05-05 19:31 50.05408 19.78491 1521 ft 101 kts 352°
2026-05-05 19:32 50.06002 19.78890 1503 ft 102 kts 59°
2026-05-05 19:32 50.06205 19.79996 1445 ft 108 kts 79°
2026-05-05 19:32 50.06254 19.81127 1519 ft 100 kts 123°
2026-05-05 19:32 50.05655 19.81429 1552 ft 95 kts 195°
2026-05-05 19:33 50.05128 19.80848 1539 ft 95 kts 232°
2026-05-05 19:33 50.04916 19.79874 1526 ft 98 kts 266°
2026-05-05 19:33 50.04959 19.78824 1528 ft 97 kts 300°
2026-05-05 19:33 50.05547 19.78859 1442 ft 102 kts 58°
2026-05-05 19:34 50.05459 19.79807 1539 ft 89 kts 146°
2026-05-05 19:34 50.04933 19.79593 1539 ft 89 kts 237°
2026-05-05 19:34 50.04822 19.78639 1520 ft 95 kts 288°
2026-05-05 19:35 50.05616 19.78959 1491 ft 97 kts 86°
2026-05-05 19:35 50.05311 19.79774 1559 ft 88 kts 154°
2026-05-05 19:35 50.04785 19.79563 1571 ft 87 kts 232°
2026-05-05 19:35 50.04727 19.78627 1565 ft 93 kts 295°
2026-05-05 19:36 50.05274 19.78414 1599 ft 93 kts 38°
2026-05-05 19:36 50.05464 19.79356 1558 ft 94 kts 108°
2026-05-05 19:36 50.04983 19.79796 1640 ft 81 kts 207°
2026-05-05 19:36 50.04746 19.79103 1708 ft 78 kts 265°
2026-05-05 19:37 50.05031 19.78382 1689 ft 90 kts 331°
2026-05-05 19:37 50.05675 19.78454 1629 ft 97 kts 39°
2026-05-05 19:37 50.05811 19.79363 1692 ft 86 kts 124°
2026-05-05 19:37 50.05283 19.79747 1645 ft 88 kts 189°
2026-05-05 19:38 50.04856 19.79118 1655 ft 90 kts 252°
2026-05-05 19:38 50.05111 19.78331 1675 ft 94 kts 339°
2026-05-05 19:38 50.05715 19.78551 1666 ft 98 kts 53°
2026-05-05 19:38 50.05697 19.79531 1673 ft 92 kts 124°
2026-05-05 19:39 50.05174 19.79691 1684 ft 87 kts 223°
2026-05-05 19:39 50.05090 19.78749 1637 ft 96 kts 300°
2026-05-05 19:39 50.05700 19.78533 1605 ft 100 kts 43°
2026-05-05 19:39 50.05752 19.79527 1615 ft 95 kts 120°
2026-05-05 19:40 50.05220 19.79973 1668 ft 88 kts 189°
2026-05-05 19:40 50.04880 19.79353 1689 ft 87 kts 275°
2026-05-05 19:40 50.05293 19.78674 1651 ft 99 kts 344°
2026-05-05 19:40 50.05778 19.79238 1611 ft 99 kts 91°
2026-05-05 19:41 50.05373 19.79817 1667 ft 88 kts 187°
2026-05-05 19:41 50.05002 19.79170 1652 ft 90 kts 270°
2026-05-05 19:41 50.05391 19.78431 1626 ft 99 kts 345°
2026-05-05 19:41 50.05819 19.78968 1692 ft 88 kts 88°
2026-05-05 19:42 50.05814 19.79943 1680 ft 91 kts 90°
2026-05-05 19:42 50.05969 19.80945 1643 ft 99 kts 78°
2026-05-05 19:42 50.06129 19.81998 1630 ft 101 kts 80°
2026-05-05 19:42 50.06252 19.83079 1670 ft 100 kts 88°
2026-05-05 19:43 50.06360 19.84127 1663 ft 101 kts 69°
2026-05-05 19:43 50.06950 19.84698 1636 ft 107 kts
2026-05-05 19:43 50.07660 19.84512 1630 ft 104 kts 344°
2026-05-05 19:43 50.08356 19.84257 1503 ft 92 kts 335°
2026-05-05 19:44 50.08475 19.83494 1248 ft 78 kts 245°
2026-05-05 19:44 50.08357 19.82707 1106 ft 73 kts 259°
2026-05-05 19:44 50.08244 19.81914 1075 ft 75 kts 259°
2026-05-05 19:44 50.08145 19.81135 992 ft 69 kts 258°
2026-05-05 19:45 50.08045 19.80416 866 ft 67 kts 257°
2026-05-05 19:45 50.07949 19.79735 795 ft 56 kts 256°
2026-05-05 19:45 50.07883 19.79271 794 ft 34 kts 257°
2026-05-05 19:45 50.07840 19.79079 795 ft 15 kts 210°
2026-05-05 19:46 50.07774 19.79080 795 ft 4 kts 166°
2026-05-05 19:46 50.07743 19.79090 795 ft 0 kts 167°
2026-05-05 19:47 50.07724 19.79097 795 ft 5 kts 167°
2026-05-05 19:47 50.07636 19.79127 794 ft 17 kts 163°
2026-05-05 19:47 50.07623 19.79241 794 ft 8 kts 81°
2026-05-05 19:48 50.07645 19.79385 794 ft 18 kts 76°
2026-05-05 19:48 50.07671 19.79565 794 ft 15 kts 81°
2026-05-05 19:48 50.07689 19.79710 794 ft 11 kts 79°
2026-05-05 19:48 50.07706 19.79836 794 ft 8 kts 92°
2026-05-05 19:49 50.07624 19.79900 794 ft 11 kts 153°
2026-05-05 19:49 50.07615 19.80005 794 ft 15 kts 74°
2026-05-05 19:49 50.07645 19.80136 794 ft 7 kts 352°
2026-05-05 19:49 50.07657 19.80132 794 ft 1 kts
2026-05-05 19:50 50.07674 19.80160 794 ft 9 kts 34°
2026-05-05 19:50 50.07701 19.80162 794 ft 0 kts 346°